Weather in North Vancouver

Canada     49°19′47″N   123°04′14″W
temp.,
°C
wind,
m/s
gust,
m/s
humid.,
%
clouds,
%
prec.,
mm/h
press.,
hPa
HPBL,
m
18 may, tue
tue1823:00+9s159175 19.4 1010323
02:00+8wsw3883100 1.6 1012457
05:00+6wsw367929 2.4 1015233
08:00+9sw456448 0.2 10171268
11:00+12sw354943 0.7 10181796
14:00+14sw453894 0.5 10182429
17:00+14wsw35368 0.7 10172022
20:00+11sw22545 0.1 1017180
19 may, wed
wed1923:00+6ne217336 0.1 101938
02:00+5ene228540 0.4 101974
05:00+4ene12877 0.5 101952
08:00+8se227022 0.0 1020418
11:00+13sw124762 0.1 10191644
14:00+13wsw324953 0.1 10181457
17:00+14wsw434673 0.2 10161368
20:00+11w136783 0.1 1016120
20 may, thu
thu2023:00+7e12855 0.4 101750
02:00+6ne22873 0.0 101735
05:00+5ne11880 0.0 101824
08:00+9s117117 0.0 1019313
11:00+14sw225313 0.0 10181153
14:00+15sw33524 0.0 10181099
17:00+15ssw325897 0.4 1017584
20:00+12ese12794 0.4 1019140
21 may, fri
fri2123:00+9ene249121 0.8 1020110
02:00+7ne23910 0.0 102181
05:00+6ne21910 0.0 102121
08:00+10s11780 0.0 1022290
11:00+15sw325616 0.0 10211100
14:00+17sw32510 0.0 1020944
17:00+18wsw23450 0.0 1018621
20:00+14sw22670 0.0 101898
22 may, sat
sat2223:00+9ene22854 0.0 101941
02:00+9ne118573 0.0 101917
05:00+8ene118498 0.0 101916
08:00+12se12711 0.0 1019308
11:00+17ssw215199 0.0 1017882
14:00+18sw3252100 0.0 1016891
17:00+17sw2252100 0.0 1014643
20:00+14ssw1168100 0.0 101453